Year,Month,Day,Hour,Minute,Value (Times are PST for temperature in C)
2014,04,19,00,04,8.70
2014,04,19,00,09,8.70
2014,04,19,00,14,8.60
2014,04,19,00,19,8.60
2014,04,19,00,24,8.50
2014,04,19,00,29,8.40
2014,04,19,00,34,8.40
2014,04,19,00,39,8.40
2014,04,19,00,44,8.30
2014,04,19,00,49,8.30
2014,04,19,00,54,8.30
2014,04,19,00,59,8.30
2014,04,19,01,04,8.30
2014,04,19,01,09,8.30
2014,04,19,01,14,8.30
2014,04,19,01,19,8.30
2014,04,19,01,24,8.30
2014,04,19,01,29,8.30
2014,04,19,01,34,8.30
2014,04,19,01,39,8.20
2014,04,19,01,44,8.10
2014,04,19,01,49,8.10
2014,04,19,01,54,8.00
2014,04,19,01,59,7.90
2014,04,19,02,04,7.90
2014,04,19,02,09,7.90
2014,04,19,02,14,7.90
2014,04,19,02,19,7.90
2014,04,19,02,24,7.90
2014,04,19,02,29,7.90
2014,04,19,02,34,7.90
2014,04,19,02,39,7.90
2014,04,19,02,44,8.00
2014,04,19,02,49,8.00
2014,04,19,02,54,8.10
2014,04,19,02,59,8.10
2014,04,19,03,04,8.20
2014,04,19,03,09,8.20
2014,04,19,03,14,8.30
2014,04,19,03,19,8.30
2014,04,19,03,24,8.30
2014,04,19,03,29,8.30
2014,04,19,03,34,8.40
2014,04,19,03,39,8.40
2014,04,19,03,44,8.40
2014,04,19,03,49,8.40
2014,04,19,03,54,8.30
2014,04,19,03,59,8.20
2014,04,19,04,04,8.20
2014,04,19,04,09,8.10
2014,04,19,04,14,8.10
2014,04,19,04,19,8.10
2014,04,19,04,24,8.00
2014,04,19,04,29,8.00
2014,04,19,04,34,7.90
2014,04,19,04,39,7.90
2014,04,19,04,44,7.90
2014,04,19,04,49,7.90
2014,04,19,04,54,7.90
2014,04,19,04,59,7.70
2014,04,19,05,04,7.70
2014,04,19,05,09,7.70
2014,04,19,05,14,7.70
2014,04,19,05,19,7.70
2014,04,19,05,24,7.60
2014,04,19,05,29,7.60
2014,04,19,05,34,7.60
2014,04,19,05,39,7.60
2014,04,19,05,44,7.60
2014,04,19,05,49,7.60
2014,04,19,05,54,7.60
2014,04,19,05,59,7.60
2014,04,19,06,04,7.60
2014,04,19,06,09,7.70
2014,04,19,06,14,7.80
2014,04,19,06,17,7.80
2014,04,19,09,19,8.40
2014,04,19,09,24,8.50
2014,04,19,09,29,8.70
2014,04,19,09,34,8.70
2014,04,19,09,39,8.80
2014,04,19,09,44,8.90
2014,04,19,09,49,8.90
2014,04,19,09,54,9.00
2014,04,19,09,59,9.10
2014,04,19,10,04,9.10
2014,04,19,10,09,9.00
2014,04,19,10,14,9.00
2014,04,19,10,19,9.10
2014,04,19,10,24,9.10
2014,04,19,10,29,9.20
2014,04,19,10,34,9.30
2014,04,19,10,39,9.40
2014,04,19,10,44,9.40
2014,04,19,10,49,9.50
2014,04,19,10,54,9.70
2014,04,19,10,59,9.80
2014,04,19,11,04,9.80
2014,04,19,11,09,9.90
2014,04,19,11,14,9.90
2014,04,19,11,19,9.90
2014,04,19,11,24,9.90
2014,04,19,11,29,9.80
2014,04,19,11,34,9.80
2014,04,19,11,39,9.70
2014,04,19,11,44,9.70
2014,04,19,11,49,9.60
2014,04,19,11,54,9.60
2014,04,19,17,54,10.30
2014,04,19,17,59,10.40
2014,04,19,18,04,10.60
2014,04,19,18,09,10.80
2014,04,19,18,14,10.70
2014,04,19,18,19,10.40
2014,04,19,18,24,10.20
2014,04,19,18,29,10.00
2014,04,19,18,34,9.80
2014,04,19,18,39,9.60
2014,04,19,18,44,9.40
2014,04,19,18,49,9.30
2014,04,19,18,54,9.20
2014,04,19,18,59,9.20
2014,04,19,19,04,9.40
2014,04,19,19,09,9.50
2014,04,19,19,14,9.60
2014,04,19,19,19,9.40
2014,04,19,19,24,9.30
2014,04,19,19,29,9.20
2014,04,19,19,34,9.10
2014,04,19,19,39,9.00
2014,04,19,19,44,8.90
2014,04,19,19,49,8.90
2014,04,19,19,54,8.80
2014,04,19,19,59,8.80
2014,04,19,20,04,8.80
2014,04,19,20,09,8.80
2014,04,19,20,14,8.90
2014,04,19,20,19,9.00
2014,04,19,20,24,8.90
2014,04,19,20,29,8.80
2014,04,19,20,34,8.70
2014,04,19,20,39,8.60
2014,04,19,20,44,8.60
2014,04,19,20,49,8.70
2014,04,19,20,54,8.70
2014,04,19,20,59,8.70
2014,04,19,21,04,8.80
2014,04,19,21,09,8.80
2014,04,19,21,14,8.80
2014,04,19,21,19,8.80
2014,04,19,21,24,8.90
2014,04,19,21,29,8.90
2014,04,19,21,34,8.90
2014,04,19,21,39,8.90
2014,04,19,21,44,8.90
2014,04,19,21,49,8.90
2014,04,19,21,54,8.90
2014,04,19,21,59,8.90
2014,04,19,22,04,8.80
2014,04,19,22,09,8.80
2014,04,19,22,14,8.80
2014,04,19,22,19,8.80
2014,04,19,22,24,8.70
2014,04,19,22,29,8.60
2014,04,19,22,34,8.60
2014,04,19,22,39,8.50
2014,04,19,22,44,8.40
2014,04,19,22,49,8.40
2014,04,19,22,54,8.50
2014,04,19,22,59,8.40
2014,04,19,23,04,8.50
2014,04,19,23,09,8.50
2014,04,19,23,14,8.40
2014,04,19,23,19,8.40
2014,04,19,23,24,8.30
2014,04,19,23,29,8.30
2014,04,19,23,34,8.30
2014,04,19,23,49,8.20
2014,04,19,23,54,8.20
2014,04,19,23,59,8.20
